| time (UTC) | temp F | wind direction | speed MPH | gust MPH | rain 1hr in | rain 24hr in | rain mn in | humidity % | barometer mb |
| 20260905133521 | 71 | 9 | 5.0 | 15.0 | 0.00 | 0.00 | 0.00 | 74 | 1012.9 |
| 20260905133038 | 71 | 301 | 3.0 | 9.0 | 0.00 | 0.00 | 0.00 | 77 | 1013.0 |
| 20260905132517 | 71 | 309 | 2.0 | 8.0 | 0.00 | 0.00 | 0.00 | 76 | 1013.0 |
| 20260905132019 | 70 | 334 | 3.0 | 8.0 | 0.00 | 0.00 | 0.00 | 79 | 1013.2 |
| 20260905131551 | 70 | 293 | 2.0 | 8.0 | 0.00 | 0.00 | 0.00 | 80 | 1013.0 |
| 20260905131020 | 69 | 139 | 2.0 | 9.0 | 0.00 | 0.00 | 0.00 | 79 | 1013.0 |
| 20260905130518 | 69 | 41 | 1.0 | 9.0 | 0.00 | 0.00 | 0.00 | 79 | 1013.0 |
| 20260905130038 | 69 | 36 | 3.0 | 9.0 | 0.00 | 0.00 | 0.00 | 79 | 1012.9 |
| 20260905125521 | 69 | 304 | 3.0 | 5.0 | 0.00 | 0.00 | 0.00 | 79 | 1013.0 |
| 20260905125023 | 69 | 296 | 2.0 | 6.0 | 0.00 | 0.00 | 0.00 | 80 | 1012.9 |
| 20260905124538 | 68 | 282 | 1.0 | 7.0 | 0.00 | 0.00 | 0.00 | 82 | 1012.9 |
| 20260905124022 | 68 | 325 | 2.0 | 7.0 | 0.00 | 0.00 | 0.00 | 82 | 1012.7 |
| 20260905123525 | 67 | 284 | 2.0 | 5.0 | 0.00 | 0.00 | 0.00 | 83 | 1012.6 |
| 20260905123100 | 67 | 9 | 1.0 | 4.0 | 0.00 | 0.00 | 0.00 | 83 | 1012.5 |
| 20260905122518 | 67 | 254 | 1.0 | 5.0 | 0.00 | 0.00 | 0.00 | 84 | 1012.5 |
| 20260905122018 | 66 | 273 | 1.0 | 5.0 | 0.00 | 0.00 | 0.00 | 85 | 1012.6 |
| 20260905121539 | 66 | 51 | 1.0 | 5.0 | 0.00 | 0.00 | 0.00 | 86 | 1012.4 |
| 20260905121018 | 65 | 126 | 1.0 | 4.0 | 0.00 | 0.00 | 0.00 | 87 | 1012.5 |
| 20260905120523 | 65 | 16 | 1.0 | 4.0 | 0.00 | 0.00 | 0.00 | 87 | 1012.6 |
| 20260905120041 | 65 | 38 | 0.0 | 4.0 | 0.00 | 0.00 | 0.00 | 88 | 1012.4 |
| 20260905115523 | 65 | 291 | 1.0 | 4.0 | 0.00 | 0.00 | 0.00 | 88 | 1012.4 |
| 20260905115018 | 64 | 9 | 1.0 | 4.0 | 0.00 | 0.00 | 0.00 | 90 | 1012.3 |
| 20260905114544 | 63 | 51 | 1.0 | 4.0 | 0.00 | 0.00 | 0.00 | 91 | 1012.3 |
| 20260905114018 | 63 | 9 | 1.0 | 3.0 | 0.00 | 0.00 | 0.00 | 91 | 1012.1 |
| 20260905113518 | 63 | 67 | 1.0 | 3.0 | 0.00 | 0.00 | 0.00 | 92 | 1011.9 |
| 20260905113037 | 62 | 78 | 1.0 | 4.0 | 0.00 | 0.00 | 0.00 | 92 | 1011.8 |
| 20260905112519 | 62 | 76 | 0.0 | 4.0 | 0.00 | 0.00 | 0.00 | 91 | 1011.5 |
| 20260905112018 | 62 | 123 | 0.0 | 4.0 | 0.00 | 0.00 | 0.00 | 92 | 1011.4 |
| 20260905111538 | 62 | 309 | 1.0 | 4.0 | 0.00 | 0.00 | 0.00 | 92 | 1011.4 |
| 20260905111020 | 61 | 41 | 1.0 | 4.0 | 0.00 | 0.00 | 0.00 | 92 | 1011.2 |
| 20260905110528 | 61 | 56 | 1.0 | 3.0 | 0.00 | 0.00 | 0.00 | 92 | 1011.2 |
| 20260905110042 | 61 | 0 | 1.0 | 3.0 | 0.00 | 0.00 | 0.00 | 92 | 1011.1 |
| 20260905105518 | 61 | 26 | 1.0 | 3.0 | 0.00 | 0.00 | 0.00 | 93 | 1011.1 |
| 20260905105017 | 61 | 0 | 1.0 | 3.0 | 0.00 | 0.00 | 0.00 | 93 | 1011.1 |
| 20260905104539 | 61 | 64 | 0.0 | 2.0 | 0.00 | 0.00 | 0.00 | 93 | 1011.1 |
| 20260905104016 | 61 | 0 | 1.0 | 3.0 | 0.00 | 0.00 | 0.00 | 93 | 1011.0 |
| 20260905103521 | 61 | 0 | 0.0 | 3.0 | 0.00 | 0.00 | 0.00 | 93 | 1011.1 |
| 20260905103045 | 61 | 9 | 1.0 | 3.0 | 0.00 | 0.00 | 0.00 | 93 | 1011.0 |
| 20260905102520 | 61 | 0 | 0.0 | 2.0 | 0.00 | 0.00 | 0.00 | 93 | 1011.1 |
| 20260905102020 | 61 | 0 | 0.0 | 2.0 | 0.00 | 0.00 | 0.00 | 93 | 1011.1 |
| 20260905101536 | 61 | 126 | 0.0 | 3.0 | 0.00 | 0.00 | 0.00 | 93 | 1011.1 |
| 20260905101020 | 61 | 316 | 0.0 | 3.0 | 0.00 | 0.00 | 0.00 | 93 | 1011.0 |
| 20260905100520 | 61 | 44 | 0.0 | 2.0 | 0.00 | 0.00 | 0.00 | 93 | 1010.9 |
| 20260905100051 | 61 | 41 | 1.0 | 2.0 | 0.00 | 0.00 | 0.00 | 93 | 1010.8 |
| 20260905095517 | 61 | 41 | 0.0 | 2.0 | 0.00 | 0.00 | 0.00 | 93 | 1010.8 |
| 20260905095018 | 61 | 51 | 0.0 | 2.0 | 0.00 | 0.00 | 0.00 | 93 | 1010.8 |
| 20260905094539 | 61 | 115 | 0.0 | 2.0 | 0.00 | 0.00 | 0.00 | 93 | 1010.8 |
| 20260905094017 | 61 | 34 | 0.0 | 2.0 | 0.00 | 0.00 | 0.00 | 93 | 1010.8 |
| 20260905093521 | 61 | 68 | 0.0 | 2.0 | 0.00 | 0.00 | 0.00 | 93 | 1010.7 |
| 20260905093038 | 62 | 41 | 0.0 | 2.0 | 0.00 | 0.00 | 0.00 | 93 | 1010.7 |
| 20260905092519 | 62 | 9 | 0.0 | 2.0 | 0.00 | 0.00 | 0.00 | 92 | 1010.7 |
| 20260905092020 | 62 | 9 | 1.0 | 2.0 | 0.00 | 0.00 | 0.00 | 92 | 1010.6 |
| 20260905091544 | 62 | 0 | 0.0 | 1.0 | 0.00 | 0.00 | 0.00 | 92 | 1010.7 |
| 20260905091021 | 62 | 0 | 0.0 | 2.0 | 0.00 | 0.00 | 0.00 | 92 | 1010.7 |
| 20260905090519 | 62 | 9 | 0.0 | 2.0 | 0.00 | 0.00 | 0.00 | 92 | 1010.7 |
| 20260905090035 | 62 | 9 | 1.0 | 2.0 | 0.00 | 0.00 | 0.00 | 92 | 1010.7 |
| 20260905085518 | 63 | 34 | 0.0 | 2.0 | 0.00 | 0.00 | 0.00 | 91 | 1010.7 |
| 20260905085021 | 63 | 0 | 0.0 | 2.0 | 0.00 | 0.00 | 0.00 | 91 | 1010.8 |
| 20260905084537 | 63 | 9 | 0.0 | 2.0 | 0.00 | 0.00 | 0.00 | 91 | 1010.7 |
| 20260905084021 | 63 | 325 | 0.0 | 2.0 | 0.00 | 0.00 | 0.00 | 91 | 1010.6 |
| 20260905083524 | 63 | 0 | 0.0 | 2.0 | 0.00 | 0.00 | 0.00 | 90 | 1010.6 |
| 20260905083036 | 64 | 0 | 0.0 | 2.0 | 0.00 | 0.00 | 0.00 | 90 | 1010.6 |
| 20260905082519 | 64 | 34 | 0.0 | 2.0 | 0.00 | 0.00 | 0.00 | 91 | 1010.7 |
| 20260905082019 | 64 | 9 | 0.0 | 2.0 | 0.00 | 0.00 | 0.00 | 90 | 1010.7 |
| 20260905081537 | 64 | 0 | 0.0 | 2.0 | 0.00 | 0.00 | 0.00 | 91 | 1010.8 |
| 20260905081021 | 64 | 325 | 0.0 | 2.0 | 0.00 | 0.00 | 0.00 | 91 | 1010.8 |
| 20260905080516 | 65 | 9 | 0.0 | 1.0 | 0.00 | 0.00 | 0.00 | 91 | 1010.8 |
| 20260905080107 | 65 | 334 | 0.0 | 1.0 | 0.00 | 0.00 | 0.00 | 91 | 1010.7 |
| 20260905075521 | 65 | 334 | 0.0 | 3.0 | 0.00 | 0.02 | 0.00 | 91 | 1010.7 |
| 20260905075019 | 65 | 0 | 0.0 | 3.0 | 0.00 | 0.02 | 0.00 | 90 | 1010.7 |
| 20260905074539 | 65 | 9 | 0.0 | 2.0 | 0.00 | 0.02 | 0.00 | 90 | 1010.7 |
| 20260905074020 | 65 | 0 | 0.0 | 1.0 | 0.00 | 0.02 | 0.00 | 90 | 1010.7 |
| 20260905073517 | 65 | 309 | 0.0 | 2.0 | 0.00 | 0.02 | 0.00 | 90 | 1010.6 |
| 20260905073039 | 65 | 325 | 0.0 | 2.0 | 0.00 | 0.02 | 0.00 | 90 | 1010.6 |
| 20260905072518 | 65 | 51 | 0.0 | 2.0 | 0.00 | 0.02 | 0.00 | 89 | 1010.6 |
| 20260905072018 | 65 | 0 | 0.0 | 2.0 | 0.00 | 0.02 | 0.00 | 89 | 1010.5 |
| 20260905071541 | 65 | 93 | 0.0 | 2.0 | 0.00 | 0.02 | 0.00 | 89 | 1010.6 |
| 20260905071021 | 65 | 0 | 0.0 | 2.0 | 0.00 | 0.02 | 0.00 | 89 | 1010.7 |
| 20260905070516 | 65 | 325 | 0.0 | 2.0 | 0.00 | 0.02 | 0.00 | 88 | 1010.6 |
| 20260905070049 | 65 | 309 | 0.0 | 2.0 | 0.00 | 0.02 | 0.00 | 88 | 1010.6 |
| 20260905065522 | 65 | 0 | 0.0 | 2.0 | 0.00 | 0.02 | 0.00 | 88 | 1010.6 |
| 20260905065019 | 66 | 0 | 0.0 | 2.0 | 0.00 | 0.02 | 0.00 | 87 | 1010.7 |
| 20260905064547 | 66 | 0 | 0.0 | 2.0 | 0.00 | 0.02 | 0.00 | 87 | 1010.8 |
| 20260905064020 | 66 | 126 | 0.0 | 1.0 | 0.00 | 0.02 | 0.00 | 87 | 1010.8 |
| 20260905063519 | 66 | 0 | 0.0 | 2.0 | 0.00 | 0.02 | 0.00 | 87 | 1010.9 |
| 20260905063042 | 66 | 0 | 0.0 | 2.0 | 0.00 | 0.02 | 0.00 | 86 | 1010.9 |
| 20260905062516 | 66 | 0 | 0.0 | 3.0 | 0.00 | 0.02 | 0.00 | 87 | 1010.9 |
| 20260905062017 | 66 | 26 | 1.0 | 3.0 | 0.00 | 0.02 | 0.00 | 88 | 1011.0 |
| 20260905061541 | 66 | 72 | 1.0 | 3.0 | 0.00 | 0.02 | 0.00 | 89 | 1011.0 |
| 20260905061022 | 66 | 9 | 0.0 | 3.0 | 0.00 | 0.02 | 0.00 | 90 | 1011.0 |
| 20260905060518 | 66 | 0 | 0.0 | 2.0 | 0.00 | 0.02 | 0.00 | 90 | 1011.0 |
| 20260905060049 | 66 | 0 | 0.0 | 3.0 | 0.00 | 0.02 | 0.00 | 90 | 1011.1 |
| 20260905055519 | 66 | 0 | 0.0 | 3.0 | 0.00 | 0.07 | 0.00 | 90 | 1011.1 |
| 20260905055022 | 65 | 67 | 1.0 | 3.0 | 0.00 | 0.07 | 0.00 | 90 | 1011.1 |
| 20260905054538 | 65 | 68 | 0.0 | 2.0 | 0.00 | 0.07 | 0.00 | 91 | 1011.2 |
| 20260905054023 | 65 | 0 | 0.0 | 2.0 | 0.00 | 0.07 | 0.00 | 91 | 1011.3 |
| 20260905053519 | 65 | 0 | 0.0 | 2.0 | 0.00 | 0.07 | 0.00 | 92 | 1011.3 |
| 20260905053040 | 65 | 80 | 0.0 | 2.0 | 0.00 | 0.07 | 0.00 | 92 | 1011.4 |
| 20260905052521 | 65 | 76 | 0.0 | 2.0 | 0.00 | 0.07 | 0.00 | 93 | 1011.5 |
| 20260905052016 | 65 | 34 | 1.0 | 2.0 | 0.00 | 0.07 | 0.00 | 92 | 1011.5 |
| 20260905051551 | 65 | 93 | 0.0 | 2.0 | 0.00 | 0.07 | 0.00 | 92 | 1011.5 |
| 20260905051018 | 65 | 325 | 1.0 | 2.0 | 0.00 | 0.07 | 0.00 | 92 | 1011.5 |
| 20260905050518 | 66 | 76 | 1.0 | 2.0 | 0.00 | 0.07 | 0.00 | 92 | 1011.5 |
| 20260905050040 | 66 | 34 | 0.0 | 2.0 | 0.00 | 0.07 | 0.00 | 92 | 1011.7 |
| 20260905045520 | 66 | 0 | 1.0 | 2.0 | 0.00 | 0.11 | 0.00 | 91 | 1011.8 |
| 20260905045023 | 66 | 34 | 0.0 | 2.0 | 0.00 | 0.11 | 0.00 | 91 | 1011.7 |
| 20260905044544 | 66 | 51 | 1.0 | 2.0 | 0.00 | 0.11 | 0.00 | 90 | 1011.8 |
| 20260905044018 | 66 | 93 | 0.0 | 2.0 | 0.00 | 0.11 | 0.00 | 90 | 1011.7 |
| 20260905043520 | 66 | 0 | 0.0 | 2.0 | 0.00 | 0.11 | 0.00 | 90 | 1011.8 |
| 20260905043043 | 66 | 319 | 0.0 | 2.0 | 0.00 | 0.11 | 0.00 | 89 | 1011.9 |
| 20260905042521 | 66 | 34 | 0.0 | 2.0 | 0.00 | 0.11 | 0.00 | 89 | 1011.8 |
| 20260905042019 | 66 | 0 | 0.0 | 2.0 | 0.00 | 0.11 | 0.00 | 89 | 1011.8 |
| 20260905041538 | 67 | 22 | 0.0 | 2.0 | 0.00 | 0.11 | 0.00 | 89 | 1011.8 |
| 20260905041016 | 67 | 298 | 0.0 | 2.0 | 0.00 | 0.11 | 0.00 | 89 | 1011.6 |
| 20260905040517 | 67 | 0 | 0.0 | 2.0 | 0.00 | 0.11 | 0.00 | 89 | 1011.6 |
| 20260905040048 | 67 | 26 | 1.0 | 3.0 | 0.00 | 0.11 | 0.00 | 89 | 1011.7 |
| 20260905035518 | 67 | 30 | 1.0 | 3.0 | 0.00 | 0.11 | 0.11 | 88 | 1011.7 |
| 20260905035019 | 67 | 41 | 1.0 | 3.0 | 0.00 | 0.11 | 0.11 | 88 | 1011.8 |
| 20260905034542 | 67 | 71 | 1.0 | 3.0 | 0.00 | 0.11 | 0.11 | 87 | 1011.8 |
| 20260905034023 | 68 | 61 | 1.0 | 3.0 | 0.00 | 0.11 | 0.11 | 87 | 1011.9 |
| 20260905033523 | 68 | 57 | 1.0 | 3.0 | 0.00 | 0.11 | 0.11 | 87 | 1011.9 |
| 20260905033039 | 68 | 72 | 1.0 | 3.0 | 0.00 | 0.11 | 0.11 | 86 | 1011.8 |
| 20260905032520 | 68 | 41 | 1.0 | 4.0 | 0.00 | 0.11 | 0.11 | 85 | 1011.8 |
| 20260905032020 | 67 | 137 | 1.0 | 4.0 | 0.00 | 0.11 | 0.11 | 86 | 1011.9 |
| 20260905031544 | 67 | 93 | 1.0 | 4.0 | 0.00 | 0.11 | 0.11 | 87 | 1011.9 |
| 20260905031020 | 67 | 76 | 1.0 | 3.0 | 0.00 | 0.11 | 0.11 | 88 | 1011.9 |
| 20260905030518 | 66 | 46 | 1.0 | 3.0 | 0.00 | 0.11 | 0.11 | 90 | 1012.0 |
| 20260905030047 | 66 | 26 | 1.0 | 4.0 | 0.00 | 0.11 | 0.11 | 90 | 1011.8 |
| 20260905025520 | 66 | 61 | 1.0 | 4.0 | 0.00 | 0.11 | 0.11 | 90 | 1011.8 |
| 20260905025024 | 66 | 17 | 1.0 | 4.0 | 0.00 | 0.11 | 0.11 | 90 | 1011.7 |
| 20260905024540 | 66 | 51 | 1.0 | 4.0 | 0.00 | 0.11 | 0.11 | 91 | 1011.7 |
| 20260905024015 | 66 | 34 | 1.0 | 4.0 | 0.00 | 0.11 | 0.11 | 90 | 1011.7 |
| 20260905023527 | 66 | 30 | 0.0 | 2.0 | 0.00 | 0.11 | 0.11 | 91 | 1011.5 |
| 20260905023039 | 66 | 0 | 0.0 | 2.0 | 0.00 | 0.11 | 0.11 | 91 | 1011.6 |
| 20260905022517 | 66 | 93 | 0.0 | 2.0 | 0.00 | 0.11 | 0.11 | 91 | 1011.6 |
| 20260905022023 | 66 | 22 | 0.0 | 2.0 | 0.00 | 0.11 | 0.11 | 92 | 1011.6 |
| 20260905021545 | 66 | 34 | 0.0 | 2.0 | 0.00 | 0.11 | 0.11 | 91 | 1011.6 |
| 20260905021019 | 66 | 68 | 0.0 | 3.0 | 0.00 | 0.11 | 0.11 | 91 | 1011.7 |
| 20260905020522 | 66 | 26 | 0.0 | 3.0 | 0.00 | 0.11 | 0.11 | 91 | 1011.8 |
| 20260905020048 | 66 | 0 | 0.0 | 3.0 | 0.00 | 0.11 | 0.11 | 91 | 1011.8 |
| 20260905015516 | 67 | 9 | 0.0 | 2.0 | 0.00 | 0.11 | 0.11 | 90 | 1011.7 |
| 20260905015019 | 67 | 0 | 0.0 | 2.0 | 0.00 | 0.11 | 0.11 | 90 | 1011.7 |
| 20260905014540 | 67 | 51 | 1.0 | 2.0 | 0.00 | 0.11 | 0.11 | 90 | 1011.8 |
| 20260905014024 | 67 | 51 | 1.0 | 2.0 | 0.00 | 0.11 | 0.11 | 90 | 1011.8 |
| 20260905013520 | 67 | 76 | 0.0 | 2.0 | 0.00 | 0.11 | 0.11 | 89 | 1011.8 |
| 20260905013043 | 67 | 51 | 1.0 | 2.0 | 0.00 | 0.11 | 0.11 | 89 | 1011.8 |
| 20260905012519 | 67 | 72 | 0.0 | 2.0 | 0.00 | 0.11 | 0.11 | 89 | 1011.8 |
| 20260905012016 | 67 | 71 | 1.0 | 2.0 | 0.00 | 0.11 | 0.11 | 89 | 1011.8 |
| 20260905011600 | 67 | 68 | 0.0 | 2.0 | 0.00 | 0.11 | 0.11 | 89 | 1011.9 |
| 20260905011018 | 68 | 9 | 0.0 | 2.0 | 0.00 | 0.11 | 0.11 | 89 | 1011.9 |
| 20260905010519 | 68 | 111 | 0.0 | 2.0 | 0.00 | 0.11 | 0.11 | 89 | 1011.9 |
| 20260905010044 | 68 | 0 | 0.0 | 2.0 | 0.00 | 0.11 | 0.11 | 89 | 1012.0 |
| 20260905005521 | 68 | 59 | 0.0 | 2.0 | 0.00 | 0.11 | 0.11 | 89 | 1012.0 |
| 20260905005021 | 68 | 0 | 0.0 | 2.0 | 0.00 | 0.11 | 0.11 | 89 | 1011.9 |
| 20260905004540 | 69 | 9 | 0.0 | 2.0 | 0.00 | 0.11 | 0.11 | 88 | 1011.8 |
| 20260905004017 | 69 | 51 | 0.0 | 2.0 | 0.00 | 0.11 | 0.11 | 88 | 1011.7 |
| 20260905003520 | 69 | 0 | 0.0 | 2.0 | 0.00 | 0.11 | 0.11 | 87 | 1011.7 |
| 20260905003049 | 69 | 68 | 0.0 | 1.0 | 0.00 | 0.11 | 0.11 | 86 | 1011.7 |
| 20260905002522 | 69 | 0 | 0.0 | 1.0 | 0.00 | 0.11 | 0.11 | 85 | 1011.8 |
| 20260905002022 | 70 | 0 | 0.0 | 2.0 | 0.00 | 0.11 | 0.11 | 85 | 1011.8 |
| 20260905001544 | 70 | 0 | 0.0 | 2.0 | 0.00 | 0.11 | 0.11 | 84 | 1011.8 |
| 20260905001018 | 70 | 51 | 0.0 | 2.0 | 0.00 | 0.11 | 0.11 | 83 | 1011.8 |
| 20260905000520 | 70 | 51 | 1.0 | 2.0 | 0.00 | 0.11 | 0.11 | 83 | 1011.8 |
| 20260905000039 | 71 | 51 | 0.0 | 2.0 | 0.00 | 0.11 | 0.11 | 83 | 1011.7 |
| 20260904235517 | 71 | 0 | 0.0 | 2.0 | 0.00 | 0.11 | 0.11 | 81 | 1011.8 |
| 20260904235020 | 72 | 0 | 0.0 | 2.0 | 0.00 | 0.11 | 0.11 | 80 | 1011.8 |
| 20260904234538 | 72 | 0 | 0.0 | 2.0 | 0.00 | 0.11 | 0.11 | 79 | 1011.9 |
| 20260904234019 | 73 | 0 | 0.0 | 2.0 | 0.00 | 0.11 | 0.11 | 79 | 1011.8 |
| 20260904233523 | 73 | 93 | 0.0 | 2.0 | 0.00 | 0.11 | 0.11 | 78 | 1011.8 |
| 20260904233051 | 74 | 93 | 0.0 | 2.0 | 0.00 | 0.11 | 0.11 | 77 | 1011.8 |
| 20260904232521 | 74 | 111 | 0.0 | 2.0 | 0.00 | 0.11 | 0.11 | 76 | 1011.7 |
| 20260904232019 | 75 | 93 | 0.0 | 2.0 | 0.00 | 0.11 | 0.11 | 75 | 1011.6 |
| 20260904231542 | 75 | 9 | 0.0 | 2.0 | 0.00 | 0.11 | 0.11 | 74 | 1011.5 |
| 20260904231016 | 75 | 221 | 0.0 | 1.0 | 0.00 | 0.11 | 0.11 | 73 | 1011.6 |
| 20260904230518 | 76 | 0 | 0.0 | 1.0 | 0.00 | 0.11 | 0.11 | 72 | 1011.6 |
| 20260904230042 | 76 | 0 | 0.0 | 2.0 | 0.00 | 0.11 | 0.11 | 70 | 1011.5 |
| 20260904225621 | 76 | 0 | 0.0 | 3.0 | 0.00 | 0.11 | 0.11 | 70 | 1011.6 |
| 20260904225020 | 77 | 0 | 0.0 | 3.0 | 0.00 | 0.11 | 0.11 | 69 | 1011.6 |
| 20260904224539 | 77 | 0 | 1.0 | 3.0 | 0.00 | 0.11 | 0.11 | 69 | 1011.7 |
| 20260904224018 | 77 | 19 | 0.0 | 2.0 | 0.00 | 0.11 | 0.11 | 69 | 1011.8 |
| 20260904223522 | 77 | 319 | 0.0 | 5.0 | 0.00 | 0.11 | 0.11 | 68 | 1011.9 |
| 20260904223043 | 78 | 0 | 0.0 | 5.0 | 0.00 | 0.11 | 0.11 | 68 | 1011.9 |
| 20260904222521 | 78 | 291 | 0.0 | 5.0 | 0.00 | 0.11 | 0.11 | 67 | 1011.9 |
| 20260904222017 | 78 | 178 | 1.0 | 4.0 | 0.00 | 0.11 | 0.11 | 67 | 1011.6 |
| 20260904221541 | 79 | 0 | 0.0 | 4.0 | 0.00 | 0.11 | 0.11 | 66 | 1011.6 |
| 20260904221019 | 79 | 0 | 1.0 | 3.0 | 0.00 | 0.11 | 0.11 | 64 | 1011.5 |
| 20260904220521 | 79 | 137 | 1.0 | 6.0 | 0.00 | 0.11 | 0.11 | 65 | 1011.6 |
| 20260904220042 | 79 | 282 | 2.0 | 7.0 | 0.00 | 0.11 | 0.11 | 63 | 1011.6 |
| 20260904215523 | 80 | 316 | 2.0 | 7.0 | 0.00 | 0.11 | 0.11 | 62 | 1011.5 |
| 20260904215020 | 80 | 273 | 1.0 | 6.0 | 0.00 | 0.11 | 0.11 | 60 | 1011.6 |
| 20260904214542 | 80 | 9 | 1.0 | 6.0 | 0.00 | 0.11 | 0.11 | 61 | 1011.7 |
| 20260904214019 | 81 | 162 | 1.0 | 5.0 | 0.00 | 0.11 | 0.11 | 60 | 1011.7 |
| 20260904213519 | 81 | 303 | 2.0 | 6.0 | 0.00 | 0.11 | 0.11 | 58 | 1011.6 |
| 20260904213040 | 81 | 137 | 2.0 | 6.0 | 0.00 | 0.11 | 0.11 | 59 | 1011.5 |
| 20260904212524 | 81 | 137 | 1.0 | 7.0 | 0.00 | 0.11 | 0.11 | 61 | 1011.5 |
| 20260904212022 | 81 | 334 | 2.0 | 7.0 | 0.00 | 0.11 | 0.11 | 59 | 1011.5 |
| 20260904211539 | 81 | 57 | 1.0 | 7.0 | 0.00 | 0.11 | 0.11 | 57 | 1011.5 |
| 20260904211020 | 82 | 51 | 2.0 | 6.0 | 0.00 | 0.11 | 0.11 | 56 | 1011.6 |
| 20260904210520 | 82 | 221 | 1.0 | 6.0 | 0.00 | 0.11 | 0.11 | 60 | 1011.7 |
| 20260904210040 | 81 | 284 | 1.0 | 8.0 | 0.00 | 0.11 | 0.11 | 58 | 1011.7 |
| 20260904205522 | 82 | 339 | 1.0 | 8.0 | 0.00 | 0.11 | 0.11 | 55 | 1011.8 |
| 20260904205022 | 82 | 265 | 2.0 | 7.0 | 0.00 | 0.11 | 0.11 | 57 | 1011.9 |
| 20260904204538 | 81 | 238 | 1.0 | 7.0 | 0.00 | 0.11 | 0.11 | 58 | 1011.9 |
| 20260904204019 | 81 | 0 | 1.0 | 7.0 | 0.00 | 0.11 | 0.11 | 59 | 1011.9 |
| 20260904203521 | 81 | 301 | 1.0 | 11.0 | 0.00 | 0.11 | 0.11 | 59 | 1011.9 |
| 20260904203042 | 81 | 9 | 2.0 | 11.0 | 0.00 | 0.11 | 0.11 | 58 | 1012.1 |
| 20260904202521 | 81 | 106 | 3.0 | 9.0 | 0.00 | 0.11 | 0.11 | 56 | 1012.2 |
| 20260904202020 | 81 | 137 | 1.0 | 8.0 | 0.00 | 0.11 | 0.11 | 59 | 1012.1 |
| 20260904201542 | 81 | 16 | 3.0 | 12.0 | 0.00 | 0.11 | 0.11 | 57 | 1012.0 |
| 20260904201020 | 81 | 257 | 2.0 | 12.0 | 0.00 | 0.11 | 0.11 | 57 | 1012.1 |
| 20260904200517 | 82 | 319 | 3.0 | 11.0 | 0.00 | 0.11 | 0.11 | 57 | 1012.1 |
| 20260904200044 | 81 | 0 | 2.0 | 9.0 | 0.00 | 0.11 | 0.11 | 61 | 1012.1 |
| 20260904195519 | 81 | 279 | 3.0 | 9.0 | 0.00 | 0.11 | 0.11 | 60 | 1012.0 |
| 20260904195017 | 81 | 303 | 2.0 | 7.0 | 0.00 | 0.11 | 0.11 | 61 | 1011.9 |
| 20260904194540 | 80 | 26 | 2.0 | 8.0 | 0.00 | 0.11 | 0.11 | 61 | 1012.0 |
| 20260904194021 | 80 | 346 | 2.0 | 8.0 | 0.00 | 0.11 | 0.11 | 62 | 1012.1 |
| 20260904193521 | 80 | 11 | 2.0 | 9.0 | 0.00 | 0.11 | 0.11 | 62 | 1012.2 |
| 20260904193042 | 80 | 282 | 3.0 | 9.0 | 0.00 | 0.11 | 0.11 | 62 | 1012.3 |
| 20260904192527 | 79 | 306 | 3.0 | 9.0 | 0.00 | 0.11 | 0.11 | 63 | 1012.3 |
| 20260904192023 | 79 | 298 | 3.0 | 9.0 | 0.00 | 0.11 | 0.11 | 62 | 1012.4 |
| 20260904191541 | 79 | 265 | 2.0 | 7.0 | 0.00 | 0.11 | 0.11 | 63 | 1012.4 |
| 20260904191023 | 79 | 0 | 1.0 | 9.0 | 0.00 | 0.11 | 0.11 | 66 | 1012.6 |
| 20260904190519 | 79 | 26 | 2.0 | 9.0 | 0.00 | 0.11 | 0.11 | 65 | 1012.5 |
| 20260904190037 | 79 | 158 | 1.0 | 10.0 | 0.00 | 0.11 | 0.11 | 64 | 1012.7 |
| 20260904185516 | 80 | 24 | 2.0 | 10.0 | 0.00 | 0.11 | 0.11 | 65 | 1012.7 |
| 20260904185021 | 80 | 288 | 2.0 | 7.0 | 0.00 | 0.11 | 0.11 | 65 | 1012.7 |
| 20260904184543 | 80 | 245 | 1.0 | 4.0 | 0.00 | 0.11 | 0.11 | 68 | 1012.7 |
| 20260904184016 | 79 | 0 | 1.0 | 10.0 | 0.00 | 0.11 | 0.11 | 68 | 1012.7 |
| 20260904183522 | 79 | 328 | 1.0 | 10.0 | 0.00 | 0.11 | 0.11 | 64 | 1012.8 |
| 20260904183038 | 80 | 44 | 4.0 | 10.0 | 0.00 | 0.11 | 0.11 | 64 | 1012.8 |
| 20260904182525 | 80 | 254 | 4.0 | 10.0 | 0.00 | 0.11 | 0.11 | 64 | 1012.7 |
| 20260904182023 | 81 | 280 | 4.0 | 11.0 | 0.00 | 0.11 | 0.11 | 62 | 1012.9 |
| 20260904181541 | 80 | 9 | 3.0 | 11.0 | 0.00 | 0.11 | 0.11 | 67 | 1012.9 |
| 20260904181025 | 80 | 178 | 2.0 | 8.0 | 0.00 | 0.11 | 0.11 | 68 | 1012.8 |
| 20260904180526 | 79 | 291 | 2.0 | 10.0 | 0.00 | 0.11 | 0.11 | 66 | 1012.7 |
| 20260904180053 | 80 | 311 | 4.0 | 10.0 | 0.00 | 0.11 | 0.11 | 63 | 1012.7 |
| 20260904175516 | 80 | 265 | 3.0 | 10.0 | 0.00 | 0.11 | 0.11 | 65 | 1012.7 |
| 20260904175019 | 80 | 312 | 2.0 | 9.0 | 0.00 | 0.11 | 0.11 | 63 | 1012.7 |
| 20260904174544 | 81 | 332 | 3.0 | 7.0 | 0.00 | 0.11 | 0.11 | 63 | 1012.5 |
| 20260904174020 | 81 | 17 | 2.0 | 8.0 | 0.00 | 0.11 | 0.11 | 63 | 1012.6 |
| 20260904173518 | 80 | 229 | 1.0 | 9.0 | 0.00 | 0.11 | 0.11 | 66 | 1012.7 |
| 20260904173058 | 80 | 280 | 3.0 | 11.0 | 0.00 | 0.11 | 0.11 | 65 | 1012.7 |
| 20260904172520 | 80 | 301 | 2.0 | 11.0 | 0.00 | 0.11 | 0.11 | 68 | 1012.7 |
| 20260904172018 | 80 | 315 | 5.0 | 11.0 | 0.00 | 0.11 | 0.11 | 64 | 1012.8 |
| 20260904171548 | 80 | 209 | 4.0 | 11.0 | 0.00 | 0.11 | 0.11 | 67 | 1012.8 |
| 20260904171017 | 80 | 282 | 2.0 | 11.0 | 0.00 | 0.11 | 0.11 | 65 | 1012.8 |
| 20260904170516 | 80 | 36 | 3.0 | 11.0 | 0.00 | 0.11 | 0.11 | 66 | 1012.8 |
| 20260904170043 | 80 | 13 | 4.0 | 11.0 | 0.00 | 0.11 | 0.11 | 66 | 1012.9 |
| 20260904165521 | 79 | 300 | 3.0 | 11.0 | 0.00 | 0.11 | 0.11 | 66 | 1013.0 |
| 20260904165018 | 79 | 28 | 3.0 | 9.0 | 0.00 | 0.11 | 0.11 | 70 | 1013.2 |
| 20260904164539 | 79 | 325 | 3.0 | 9.0 | 0.00 | 0.11 | 0.11 | 70 | 1013.1 |
| 20260904164018 | 78 | 61 | 2.0 | 9.0 | 0.00 | 0.11 | 0.11 | 73 | 1013.0 |
| 20260904163529 | 78 | 309 | 3.0 | 9.0 | 0.00 | 0.11 | 0.11 | 72 | 1013.0 |
| 20260904163043 | 78 | 38 | 2.0 | 15.0 | 0.00 | 0.11 | 0.11 | 71 | 1013.2 |
| 20260904162519 | 78 | 309 | 4.0 | 15.0 | 0.00 | 0.11 | 0.11 | 71 | 1013.3 |
| 20260904162017 | 79 | 61 | 3.0 | 15.0 | 0.00 | 0.11 | 0.11 | 71 | 1013.3 |
| 20260904161539 | 80 | 13 | 4.0 | 15.0 | 0.00 | 0.11 | 0.11 | 69 | 1013.4 |
| 20260904161017 | 80 | 59 | 6.0 | 15.0 | 0.00 | 0.11 | 0.11 | 68 | 1013.5 |
| 20260904160526 | 80 | 325 | 3.0 | 13.0 | 0.00 | 0.11 | 0.11 | 70 | 1013.5 |
| 20260904160041 | 79 | 329 | 5.0 | 14.0 | 0.00 | 0.11 | 0.11 | 66 | 1013.4 |
| 20260904155520 | 79 | 24 | 4.0 | 14.0 | 0.00 | 0.11 | 0.11 | 66 | 1013.4 |
| 20260904155025 | 79 | 55 | 4.0 | 13.0 | 0.00 | 0.11 | 0.11 | 69 | 1013.5 |
| 20260904154537 | 79 | 36 | 3.0 | 12.0 | 0.00 | 0.11 | 0.11 | 69 | 1013.6 |
| 20260904154019 | 79 | 335 | 6.0 | 12.0 | 0.00 | 0.11 | 0.11 | 69 | 1013.7 |
| 20260904153519 | 80 | 49 | 4.0 | 10.0 | 0.00 | 0.11 | 0.11 | 70 | 1013.8 |
| 20260904153045 | 80 | 313 | 3.0 | 9.0 | 0.00 | 0.11 | 0.11 | 71 | 1013.9 |
| 20260904152518 | 79 | 111 | 3.0 | 10.0 | 0.00 | 0.11 | 0.11 | 74 | 1014.1 |
| 20260904152020 | 79 | 22 | 4.0 | 10.0 | 0.00 | 0.11 | 0.11 | 72 | 1014.1 |
| 20260904151545 | 79 | 207 | 2.0 | 11.0 | 0.00 | 0.11 | 0.11 | 73 | 1014.1 |
| 20260904151019 | 79 | 232 | 2.0 | 11.0 | 0.00 | 0.11 | 0.11 | 74 | 1014.1 |
| 20260904150522 | 79 | 313 | 3.0 | 10.0 | 0.00 | 0.11 | 0.11 | 73 | 1014.1 |
| 20260904150043 | 79 | 75 | 4.0 | 10.0 | 0.00 | 0.11 | 0.11 | 78 | 1014.1 |
| 20260904145520 | 79 | 309 | 2.0 | 8.0 | 0.00 | 0.11 | 0.11 | 76 | 1014.2 |
| 20260904145018 | 79 | 76 | 1.0 | 8.0 | 0.00 | 0.11 | 0.11 | 77 | 1014.3 |
| 20260904144543 | 78 | 325 | 3.0 | 9.0 | 0.00 | 0.11 | 0.11 | 79 | 1014.3 |
| 20260904144017 | 78 | 0 | 2.0 | 9.0 | 0.00 | 0.11 | 0.11 | 77 | 1014.4 |
| 20260904143518 | 78 | 270 | 4.0 | 9.0 | 0.00 | 0.11 | 0.11 | 80 | 1014.3 |
| 20260904143042 | 78 | 19 | 2.0 | 8.0 | 0.00 | 0.11 | 0.11 | 79 | 1014.3 |
| 20260904142517 | 78 | 314 | 2.0 | 8.0 | 0.00 | 0.11 | 0.11 | 80 | 1014.4 |
| 20260904142018 | 77 | 282 | 2.0 | 5.0 | 0.00 | 0.11 | 0.11 | 83 | 1014.5 |
| 20260904141540 | 77 | 325 | 2.0 | 6.0 | 0.00 | 0.11 | 0.11 | 84 | 1014.4 |
| 20260904141016 | 76 | 24 | 3.0 | 11.0 | 0.00 | 0.11 | 0.11 | 84 | 1014.3 |
| 20260904140519 | 76 | 46 | 3.0 | 11.0 | 0.00 | 0.11 | 0.11 | 83 | 1014.4 |
| 20260904140040 | 76 | 36 | 3.0 | 11.0 | 0.00 | 0.11 | 0.11 | 85 | 1014.3 |
| 20260904135521 | 76 | 300 | 3.0 | 15.0 | 0.00 | 0.11 | 0.11 | 86 | 1014.4 |
| 20260904135021 | 76 | 337 | 2.0 | 15.0 | 0.00 | 0.11 | 0.11 | 86 | 1014.3 |
| 20260904134545 | 76 | 248 | 4.0 | 15.0 | 0.00 | 0.11 | 0.11 | 86 | 1014.3 |
| 20260904134018 | 76 | 280 | 3.0 | 9.0 | 0.00 | 0.11 | 0.11 | 87 | 1014.2 |